Find KUIPER-00388

NORAD ID: 68922 Int'l Des: 2026-098D Owner: KUIP Country: US Constellation: amazon-leo operational
LEOCIRCULAR

現在のビュー

3D地球を読み込み中...

About KUIPER-00388

KUIPER-00388 (NORAD 68922) is a amazon-leo constellation satellite launched Apr 30, 2026 by KUIP of US. It operates in LEO, CIRCULAR orbit with a mass of 490.00 kg.

KUIPER-00388について

説明を読み込み中...

次回通過

Passes for default location (London). Set your location on the main map for personalized predictions.

高度履歴

Loading altitude history...

軌道要素

1 68922U 26098D 26170.41090397 .00010528 00000-0 39601-3 0 9999
2 68922 51.8782 58.8452 0021791 151.7104 208.5067 15.27480916 7661
Epoch: Jun 19, 2026 • Age: 20 hours

現在のステータス

高度 495.5 km
速度 7.62 km/s
衛星直下点 -42.09°S, 74.84°W
打ち上げ日 Apr 30, 2026
運用期間 0.1 years
タイプ internet

技術仕様

分類 Payload
質量 490.00 kg
乾燥質量 490.00 kg
総質量 490.00 kg
長さ 1.80 m
直径 0.70 m
スパン 5.00 m
形状 Box + 2 pan
製造者 KUIP
バスタイプ Kuiper
フェーズステータス In Orbit
所有者/国 KUIP/US

Most Searched